星链-36950(STARLINK-36950)

导读

STARLINK-36950(NORAD编号67992)是美国太空探索技术公司(SpaceX)星链(Starlink)项目的低轨互联网通信卫星,归属Starlink V1.0平台。该卫星运行在近地轨道,轨道倾角约70°,近地点高度约570公里,周期约96分钟,属于SpaceX大规模组网的低轨卫星星座的一部分。 作为星链项目的组成卫星,它承担全球互联网覆盖任务,为偏远地区及特殊场景提供高速低延迟网络服务,目前它也在SpaceX 2026年轨道调整计划范围内,后续轨道高度将逐步降低以提升太空安全性,减少空间碎片风险。

Basic Information
目录编号:
67992
目录名称:
STARLINK-36950
国际标识:
2026-039G
轨道中心:
EARTH
卫星名称:
星链-36950
卫星全名:
星链-36950(STARLINK-36950)
卫星状态:
在轨 (已飞行189 天)
发射日期:
2026-02-27 UTC
国别 :
美国 (US)
星等 :
--
Orbit Information
数据来源 国际轨道数据
星历时间: 2026-09-04T08:10:24+0800
11小时前
查看轨道信息
半长轴: 6861.171km
偏心率: 0.0001209
轨道倾角: 42.999°
近地点辐角 271.039°
升交点赤经 122.000°
平近点角 89.033°
近地点: 482.204km
远地点: 483.864km
周期: 94.266分钟
每日圈数: 15.275852
Detailed Information
固有亮度:
5
最大亮度:
2.5
卫星平台:
Starlink V1.0
覆盖范围:
全球
运营商:
太空探索技术公司
运营商所在国:
美国
制造商(研发单位):
太空探索技术公司
制造商所在国:
美国
使用方式:
暂无
Satellite Introduction
Starlink 计划是 SpaceX 推出的全球卫星互联网项目,通过发射低轨道卫星,为全球尤其是偏远地区提供高速、低延迟的互联网服务。自 2019 年起,Starlink 已部署数千颗卫星,旨在缩小全球数字鸿沟,推动互联网普及。该项目还为军事、航空等行业提供通信支持,带来广泛经济效益。
2D Orbit Map
3D Orbit Map
Orbit Altitude Analysis Chart
Orbit Inclination Analysis Chart
Orbit Comprehensive Analysis Chart
View Comprehensive Chart
Conjunction Data List
Event ID Objects TCA Miss Dist (km) Collision Risk Probability Collision Risk Index (CRI) Action
CDM_260904-163105-933706-799221
2026-09-04T
16:31:41+0000
1.353 km
极远距离
7.093613E-6 低风险 0.52
CDM_260904-145705-933706-799221
2026-09-04T
14:57:31+0000
1.529 km
极远距离
4.740487E-6 低风险 0.49
CDM_260831-190706-767706-799221
2026-08-31T
19:07:44+0000
2.055 km
极远距离
2.591606E-6 低风险 0.43
CDM_260905-005505-114206-799221
2026-09-05T
00:55:58+0000
1.726 km
极远距离
2.374964E-6 低风险 0.43
CDM_260905-072605-933706-799221
2026-09-05T
07:26:09+0000
2.033 km
极远距离
2.108937E-6 低风险 0.41
CDM_260831-155406-300106-799221
2026-08-31T
15:54:47+0000
1.973 km
极远距离
1.958967E-6 低风险 0.41
CDM_260905-055205-933706-799221
2026-09-05T
05:52:00+0000
2.226 km
极远距离
1.714527E-6 低风险 0.4
CDM_260906-221705-797706-799221
2026-09-06T
22:17:57+0000
2.644 km
极远距离
8.654926E-7 极低风险 0.34